Terminal Aerodrome Forecast
Issued by NWS

Home | Current Version | Previous Version | Graphics & Text | Print | Product List | Glossary On
Versions: 1 2 3 4 5 6 7 8 9 10 11 12 13 14
000
FTUS43 KTOP 311100
TAFMHK
TAF
KMHK 311120Z 3112/0112 13004KT P6SM FEW050 SCT250
      TEMPO 3112/3113 3SM BR=

USA.gov is the U.S. government's official web portal to all federal, state and local government web resources and services.